Time,TemperatureF,DewpointF,PressureIn,WindDirection,WindDirectionDegrees,WindSpeedMPH,WindSpeedGustMPH,Humidity,HourlyPrecipIn,Conditions,Clouds,dailyrainin,SoftwareType,DateUTC
2013-08-22 00:00:00,63.9,51.2,29.93,NW,315,1.2,3.0,63,0.00,,,0.00,NetBSD+Arduino,2013-08-22 07:00:00,
2013-08-22 00:05:00,63.8,51.3,29.93,NE,45,0.0,3.0,63,0.00,,,0.00,NetBSD+Arduino,2013-08-22 07:05:00,
2013-08-22 00:11:00,63.4,51.2,29.93,West,270,0.0,1.5,64,0.00,,,0.00,NetBSD+Arduino,2013-08-22 07:11:00,
2013-08-22 00:16:00,63.4,51.2,29.93,North,0,0.6,4.5,64,0.00,,,0.00,NetBSD+Arduino,2013-08-22 07:16:00,
2013-08-22 00:21:00,63.2,51.3,29.93,North,0,0.0,3.0,65,0.00,,,0.00,NetBSD+Arduino,2013-08-22 07:21:00,
2013-08-22 00:26:00,63.1,51.4,29.94,NE,45,0.0,1.5,65,0.00,,,0.00,NetBSD+Arduino,2013-08-22 07:26:00,
2013-08-22 00:31:00,63.0,50.9,29.93,NE,45,1.2,3.0,64,0.00,,,0.00,NetBSD+Arduino,2013-08-22 07:31:00,
2013-08-22 00:36:00,63.1,51.1,29.93,North,0,1.2,4.5,65,0.00,,,0.00,NetBSD+Arduino,2013-08-22 07:36:00,
2013-08-22 00:41:00,63.1,50.9,29.93,NE,45,0.3,3.0,64,0.00,,,0.00,NetBSD+Arduino,2013-08-22 07:41:00,
2013-08-22 00:46:00,63.1,51.3,29.94,North,0,0.9,1.5,65,0.00,,,0.00,NetBSD+Arduino,2013-08-22 07:46:00,
2013-08-22 00:51:00,62.9,51.2,29.94,North,0,0.0,3.0,65,0.00,,,0.00,NetBSD+Arduino,2013-08-22 07:51:00,
2013-08-22 00:56:00,62.6,51.1,29.94,NE,45,0.0,3.0,65,0.00,,,0.00,NetBSD+Arduino,2013-08-22 07:56:00,
2013-08-22 01:01:00,62.6,51.0,29.94,NE,45,0.0,4.5,65,0.00,,,0.00,NetBSD+Arduino,2013-08-22 08:01:00,
2013-08-22 01:06:00,62.6,51.2,29.94,North,0,1.8,3.0,66,0.00,,,0.00,NetBSD+Arduino,2013-08-22 08:06:00,
2013-08-22 01:11:00,62.4,51.1,29.93,North,0,1.5,4.5,66,0.00,,,0.00,NetBSD+Arduino,2013-08-22 08:11:00,
2013-08-22 01:16:00,62.5,51.2,29.93,North,0,2.1,4.5,66,0.00,,,0.00,NetBSD+Arduino,2013-08-22 08:16:00,
2013-08-22 01:21:00,62.6,51.1,29.93,North,0,2.1,4.5,65,0.00,,,0.00,NetBSD+Arduino,2013-08-22 08:21:00,
2013-08-22 01:26:00,62.5,51.2,29.93,NE,45,1.5,4.5,66,0.00,,,0.00,NetBSD+Arduino,2013-08-22 08:26:00,
2013-08-22 01:31:00,62.3,51.1,29.92,NE,45,1.0,3.0,66,0.00,,,0.00,NetBSD+Arduino,2013-08-22 08:31:00,
2013-08-22 01:36:00,62.1,51.2,29.92,NE,45,1.7,3.0,67,0.00,,,0.00,NetBSD+Arduino,2013-08-22 08:36:00,
2013-08-22 01:41:00,62.0,51.0,29.92,NE,45,0.3,3.0,67,0.00,,,0.00,NetBSD+Arduino,2013-08-22 08:41:00,
2013-08-22 01:46:00,61.9,51.2,29.92,NE,45,1.2,3.0,67,0.00,,,0.00,NetBSD+Arduino,2013-08-22 08:46:00,
2013-08-22 01:51:00,61.8,51.2,29.92,NE,45,0.0,1.5,68,0.00,,,0.00,NetBSD+Arduino,2013-08-22 08:51:00,
2013-08-22 01:56:00,61.5,51.3,29.92,East,90,0.9,1.5,69,0.00,,,0.00,NetBSD+Arduino,2013-08-22 08:56:00,
2013-08-22 02:01:00,61.3,51.0,29.92,NE,45,0.0,1.5,69,0.00,,,0.00,NetBSD+Arduino,2013-08-22 09:01:00,
2013-08-22 02:06:00,61.3,51.4,29.92,NE,45,0.0,1.5,70,0.00,,,0.00,NetBSD+Arduino,2013-08-22 09:06:00,
2013-08-22 02:11:00,61.0,51.5,29.92,NE,45,0.0,1.5,70,0.00,,,0.00,NetBSD+Arduino,2013-08-22 09:11:00,
2013-08-22 02:16:00,60.8,51.5,29.92,NE,45,0.0,1.5,71,0.00,,,0.00,NetBSD+Arduino,2013-08-22 09:16:00,
2013-08-22 02:21:00,60.9,51.4,29.92,East,90,0.0,3.0,70,0.00,,,0.00,NetBSD+Arduino,2013-08-22 09:21:00,
2013-08-22 02:26:00,61.0,51.4,29.92,North,0,1.5,3.0,70,0.00,,,0.00,NetBSD+Arduino,2013-08-22 09:26:00,
2013-08-22 02:31:00,60.9,51.2,29.92,NE,45,1.5,3.0,70,0.00,,,0.00,NetBSD+Arduino,2013-08-22 09:31:00,
2013-08-22 02:36:00,60.9,51.0,29.92,NE,45,0.2,3.0,70,0.00,,,0.00,NetBSD+Arduino,2013-08-22 09:36:00,
2013-08-22 02:41:00,60.9,51.0,29.92,North,0,0.0,3.0,70,0.00,,,0.00,NetBSD+Arduino,2013-08-22 09:41:00,
2013-08-22 02:46:00,60.9,51.2,29.92,NW,315,0.0,1.5,70,0.00,,,0.00,NetBSD+Arduino,2013-08-22 09:46:00,
2013-08-22 02:52:00,60.8,51.3,29.92,North,0,1.0,3.0,70,0.00,,,0.00,NetBSD+Arduino,2013-08-22 09:52:00,
2013-08-22 02:57:00,60.5,51.2,29.92,North,0,0.0,3.0,71,0.00,,,0.00,NetBSD+Arduino,2013-08-22 09:57:00,
2013-08-22 03:03:00,60.3,51.2,29.92,NE,45,0.6,3.0,71,0.00,,,0.00,NetBSD+Arduino,2013-08-22 10:03:00,
2013-08-22 03:08:00,60.2,51.4,29.92,North,0,0.0,1.5,72,0.00,,,0.00,NetBSD+Arduino,2013-08-22 10:08:00,
2013-08-22 03:13:00,60.0,51.4,29.92,NW,315,0.0,0.0,73,0.00,,,0.00,NetBSD+Arduino,2013-08-22 10:13:00,
2013-08-22 03:18:00,59.8,51.4,29.92,NW,315,0.0,0.0,73,0.00,,,0.00,NetBSD+Arduino,2013-08-22 10:18:00,
2013-08-22 03:24:00,59.6,51.5,29.92,NW,315,0.0,0.0,74,0.00,,,0.00,NetBSD+Arduino,2013-08-22 10:24:00,
2013-08-22 03:29:00,59.5,51.5,29.92,West,270,0.0,0.0,74,0.00,,,0.00,NetBSD+Arduino,2013-08-22 10:29:00,
2013-08-22 03:34:00,59.3,51.3,29.92,West,270,0.0,0.0,74,0.00,,,0.00,NetBSD+Arduino,2013-08-22 10:34:00,
2013-08-22 03:39:00,59.3,51.2,29.92,West,270,0.0,0.0,74,0.00,,,0.00,NetBSD+Arduino,2013-08-22 10:39:00,
2013-08-22 03:44:00,59.1,51.3,29.91,West,270,0.0,0.0,75,0.00,,,0.00,NetBSD+Arduino,2013-08-22 10:44:00,
2013-08-22 03:49:00,58.9,51.2,29.92,West,270,0.0,0.0,75,0.00,,,0.00,NetBSD+Arduino,2013-08-22 10:49:00,
2013-08-22 05:28:00,58.4,50.6,29.90,NW,315,0.0,0.0,75,0.00,,,0.00,NetBSD+Arduino,2013-08-22 12:28:00,
2013-08-22 05:34:00,58.3,50.5,29.90,NW,315,0.0,0.0,75,0.00,,,0.00,NetBSD+Arduino,2013-08-22 12:34:00,
2013-08-22 05:40:00,58.3,50.7,29.91,West,270,0.0,0.0,75,0.00,,,0.00,NetBSD+Arduino,2013-08-22 12:40:00,
2013-08-22 05:45:00,58.1,51.2,29.90,West,270,0.0,0.0,77,0.00,,,0.00,NetBSD+Arduino,2013-08-22 12:45:00,
2013-08-22 05:50:00,57.7,51.5,29.90,West,270,0.0,0.0,79,0.00,,,0.00,NetBSD+Arduino,2013-08-22 12:50:00,
2013-08-22 05:56:00,57.6,52.1,29.90,West,270,0.0,0.0,81,0.00,,,0.00,NetBSD+Arduino,2013-08-22 12:56:00,
2013-08-22 06:01:00,57.7,52.3,29.91,West,270,0.0,0.0,82,0.00,,,0.00,NetBSD+Arduino,2013-08-22 13:01:00,
2013-08-22 06:03:00,57.7,52.3,29.91,NW,315,0.0,0.0,82,0.00,,,0.00,NetBSD+Arduino,2013-08-22 13:03:00,
2013-08-22 06:08:00,57.6,52.1,29.90,NW,315,0.0,0.0,81,0.00,,,0.00,NetBSD+Arduino,2013-08-22 13:08:00,
2013-08-22 06:13:00,57.5,51.4,29.90,NW,315,0.0,0.0,80,0.00,,,0.00,NetBSD+Arduino,2013-08-22 13:13:00,
2013-08-22 06:18:00,57.6,51.3,29.90,NW,315,0.0,0.0,79,0.00,,,0.00,NetBSD+Arduino,2013-08-22 13:18:00,
2013-08-22 06:23:00,57.7,51.3,29.90,North,0,0.0,0.0,79,0.00,,,0.00,NetBSD+Arduino,2013-08-22 13:23:00,
2013-08-22 06:28:00,57.9,51.3,29.90,NW,315,0.0,1.5,78,0.00,,,0.00,NetBSD+Arduino,2013-08-22 13:28:00,
2013-08-22 06:33:00,58.0,51.1,29.91,North,0,0.0,3.0,77,0.00,,,0.00,NetBSD+Arduino,2013-08-22 13:33:00,
2013-08-22 06:38:00,58.2,51.1,29.91,NE,45,0.3,3.0,77,0.00,,,0.00,NetBSD+Arduino,2013-08-22 13:38:00,
2013-08-22 06:43:00,58.3,50.8,29.92,NE,45,1.8,3.0,76,0.00,,,0.00,NetBSD+Arduino,2013-08-22 13:43:00,
2013-08-22 06:48:00,58.5,50.9,29.92,North,0,0.0,3.0,75,0.00,,,0.00,NetBSD+Arduino,2013-08-22 13:48:00,
2013-08-22 06:53:00,58.4,50.9,29.92,NE,45,0.0,1.5,76,0.00,,,0.00,NetBSD+Arduino,2013-08-22 13:53:00,
2013-08-22 06:58:00,58.6,51.1,29.92,NE,45,0.0,0.0,76,0.00,,,0.00,NetBSD+Arduino,2013-08-22 13:58:00,
2013-08-22 07:03:00,58.6,51.1,29.92,NE,45,0.0,0.0,76,0.00,,,0.00,NetBSD+Arduino,2013-08-22 14:03:00,
2013-08-22 07:08:00,58.8,50.9,29.92,NE,45,0.0,0.0,75,0.00,,,0.00,NetBSD+Arduino,2013-08-22 14:08:00,
2013-08-22 07:13:00,59.1,51.2,29.92,NE,45,0.3,3.0,75,0.00,,,0.00,NetBSD+Arduino,2013-08-22 14:13:00,
2013-08-22 07:18:00,59.4,51.4,29.91,North,0,1.8,3.0,74,0.00,,,0.00,NetBSD+Arduino,2013-08-22 14:18:00,
2013-08-22 07:23:00,59.8,51.5,29.91,NW,315,0.3,3.0,74,0.00,,,0.00,NetBSD+Arduino,2013-08-22 14:23:00,
2013-08-22 07:28:00,60.0,51.2,29.91,NW,315,0.6,4.5,72,0.00,,,0.00,NetBSD+Arduino,2013-08-22 14:28:00,
2013-08-22 07:34:00,60.7,51.7,29.91,NE,45,1.5,3.0,72,0.00,,,0.00,NetBSD+Arduino,2013-08-22 14:34:00,
2013-08-22 07:39:00,61.2,52.2,29.92,West,274,2.1,3.0,72,0.00,,,0.00,NetBSD+Arduino,2013-08-22 14:39:00,
2013-08-22 07:44:00,61.3,52.4,29.91,NE,45,2.1,3.0,72,0.00,,,0.00,NetBSD+Arduino,2013-08-22 14:44:00,
2013-08-22 07:49:00,61.5,52.5,29.90,North,0,0.0,3.0,72,0.00,,,0.00,NetBSD+Arduino,2013-08-22 14:49:00,
2013-08-22 07:54:00,61.9,52.8,29.91,NE,45,2.1,3.0,71,0.00,,,0.00,NetBSD+Arduino,2013-08-22 14:54:00,
2013-08-22 07:59:00,62.1,51.8,29.91,NW,315,0.0,6.0,69,0.00,,,0.00,NetBSD+Arduino,2013-08-22 14:59:00,
2013-08-22 08:04:00,62.4,52.0,29.90,North,0,3.3,4.5,68,0.00,,,0.00,NetBSD+Arduino,2013-08-22 15:04:00,
2013-08-22 08:09:00,62.8,51.8,29.91,NE,45,2.4,4.5,67,0.00,,,0.00,NetBSD+Arduino,2013-08-22 15:09:00,
2013-08-22 08:14:00,63.5,52.2,29.91,NE,45,3.3,4.5,66,0.00,,,0.00,NetBSD+Arduino,2013-08-22 15:14:00,
2013-08-22 08:19:00,64.0,52.3,29.90,West,273,1.0,4.5,65,0.00,,,0.00,NetBSD+Arduino,2013-08-22 15:19:00,
2013-08-22 08:24:00,64.4,52.4,29.91,South,180,0.3,4.5,65,0.00,,,0.00,NetBSD+Arduino,2013-08-22 15:24:00,
2013-08-22 08:29:00,64.8,52.7,29.91,NE,45,2.1,4.5,64,0.00,,,0.00,NetBSD+Arduino,2013-08-22 15:29:00,
2013-08-22 08:34:00,65.8,53.2,29.91,NW,315,0.0,4.5,63,0.00,,,0.00,NetBSD+Arduino,2013-08-22 15:34:00,
2013-08-22 08:39:00,66.2,53.3,29.91,South,180,0.0,1.5,63,0.00,,,0.00,NetBSD+Arduino,2013-08-22 15:39:00,
2013-08-22 08:44:00,66.6,53.4,29.91,NE,45,1.8,4.5,62,0.00,,,0.00,NetBSD+Arduino,2013-08-22 15:44:00,
2013-08-22 08:49:00,67.1,53.9,29.92,South,180,0.0,3.0,62,0.00,,,0.00,NetBSD+Arduino,2013-08-22 15:49:00,
2013-08-22 08:54:00,68.0,54.5,29.91,South,180,1.5,4.5,62,0.00,,,0.00,NetBSD+Arduino,2013-08-22 15:54:00,
2013-08-22 08:59:00,68.5,54.2,29.91,South,180,2.0,4.5,60,0.00,,,0.00,NetBSD+Arduino,2013-08-22 15:59:00,
2013-08-22 09:04:00,70.1,55.5,29.90,South,180,0.0,4.5,59,0.00,,,0.00,NetBSD+Arduino,2013-08-22 16:04:00,
2013-08-22 09:09:00,70.8,55.6,29.91,NE,45,1.8,3.0,58,0.00,,,0.00,NetBSD+Arduino,2013-08-22 16:09:00,
2013-08-22 09:14:00,71.1,55.2,29.91,South,180,2.1,4.5,57,0.00,,,0.00,NetBSD+Arduino,2013-08-22 16:14:00,
2013-08-22 09:19:00,71.1,55.2,29.90,North,0,2.5,3.0,57,0.00,,,0.00,NetBSD+Arduino,2013-08-22 16:19:00,
2013-08-22 09:24:00,71.1,55.2,29.90,NW,315,0.0,4.5,57,0.00,,,0.00,NetBSD+Arduino,2013-08-22 16:24:00,
2013-08-22 09:29:00,71.1,55.2,29.90,West,270,0.0,1.5,57,0.00,,,0.00,NetBSD+Arduino,2013-08-22 16:29:00,
2013-08-22 09:34:00,71.1,55.2,29.90,NE,45,0.9,4.5,57,0.00,,,0.00,NetBSD+Arduino,2013-08-22 16:34:00,
2013-08-22 09:39:00,74.9,56.0,29.90,West,270,1.8,3.0,51,0.00,,,0.00,NetBSD+Arduino,2013-08-22 16:39:00,
2013-08-22 09:44:00,74.9,56.0,29.90,NW,315,1.7,3.0,51,0.00,,,0.00,NetBSD+Arduino,2013-08-22 16:44:00,
2013-08-22 09:49:00,74.9,56.0,29.90,West,270,2.1,4.5,51,0.00,,,0.00,NetBSD+Arduino,2013-08-22 16:49:00,
2013-08-22 09:54:00,74.9,56.0,29.90,West,270,0.2,3.0,51,0.00,,,0.00,NetBSD+Arduino,2013-08-22 16:54:00,
2013-08-22 09:59:00,74.9,56.0,29.90,NW,315,0.0,3.0,51,0.00,,,0.00,NetBSD+Arduino,2013-08-22 16:59:00,
2013-08-22 10:04:00,74.9,56.0,29.90,West,270,0.0,3.0,51,0.00,,,0.00,NetBSD+Arduino,2013-08-22 17:04:00,
2013-08-22 10:09:00,74.9,56.0,29.90,West,270,0.3,3.0,51,0.00,,,0.00,NetBSD+Arduino,2013-08-22 17:09:00,
2013-08-22 10:15:00,74.9,56.0,29.90,SW,225,1.2,3.0,51,0.00,,,0.00,NetBSD+Arduino,2013-08-22 17:15:00,
2013-08-22 10:20:00,74.9,56.0,29.90,SW,225,0.7,3.0,51,0.00,,,0.00,NetBSD+Arduino,2013-08-22 17:20:00,
2013-08-22 10:25:00,74.9,56.0,29.90,SW,225,0.2,3.0,51,0.00,,,0.00,NetBSD+Arduino,2013-08-22 17:25:00,
2013-08-22 10:30:00,74.9,56.0,29.90,NW,315,1.0,3.0,51,0.00,,,0.00,NetBSD+Arduino,2013-08-22 17:30:00,
2013-08-22 10:35:00,74.9,56.0,29.90,West,270,0.9,3.0,51,0.00,,,0.00,NetBSD+Arduino,2013-08-22 17:35:00,
2013-08-22 10:40:00,74.9,56.0,29.90,NW,315,0.0,1.5,51,0.00,,,0.00,NetBSD+Arduino,2013-08-22 17:40:00,
2013-08-22 10:45:00,75.2,54.4,29.90,NE,45,3.3,4.5,48,0.00,,,0.00,NetBSD+Arduino,2013-08-22 17:45:00,
2013-08-22 10:50:00,75.3,54.2,29.90,NW,315,0.0,4.5,47,0.00,,,0.00,NetBSD+Arduino,2013-08-22 17:50:00,
2013-08-22 10:55:00,75.3,54.2,29.90,South,180,5.0,6.0,47,0.00,,,0.00,NetBSD+Arduino,2013-08-22 17:55:00,
2013-08-22 11:00:00,75.3,54.2,29.89,East,90,2.7,6.0,47,0.00,,,0.00,NetBSD+Arduino,2013-08-22 18:00:00,
2013-08-22 11:05:00,78.1,54.7,29.89,SW,225,1.8,6.0,44,0.00,,,0.00,NetBSD+Arduino,2013-08-22 18:05:00,
2013-08-22 11:10:00,77.8,53.4,29.89,South,180,3.6,4.5,42,0.00,,,0.00,NetBSD+Arduino,2013-08-22 18:10:00,
2013-08-22 11:15:00,77.8,53.4,29.89,NW,315,0.6,6.0,42,0.00,,,0.00,NetBSD+Arduino,2013-08-22 18:15:00,
2013-08-22 11:20:00,77.8,52.4,29.88,East,101,0.6,4.5,41,0.00,,,0.00,NetBSD+Arduino,2013-08-22 18:20:00,
2013-08-22 11:25:00,77.8,52.4,29.89,North,0,4.8,6.0,41,0.00,,,0.00,NetBSD+Arduino,2013-08-22 18:25:00,
2013-08-22 11:30:00,78.3,52.5,29.88,NE,45,0.0,6.0,40,0.00,,,0.00,NetBSD+Arduino,2013-08-22 18:30:00,
2013-08-22 11:35:00,79.6,53.8,29.88,North,0,3.6,6.0,40,0.00,,,0.00,NetBSD+Arduino,2013-08-22 18:35:00,
2013-08-22 11:40:00,78.9,52.4,29.88,NW,315,0.3,4.5,39,0.00,,,0.00,NetBSD+Arduino,2013-08-22 18:40:00,
2013-08-22 11:45:00,78.9,52.4,29.88,SW,225,3.3,4.5,39,0.00,,,0.00,NetBSD+Arduino,2013-08-22 18:45:00,
2013-08-22 11:50:00,78.9,52.4,29.88,West,270,0.0,3.0,39,0.00,,,0.00,NetBSD+Arduino,2013-08-22 18:50:00,
2013-08-22 11:55:00,78.9,52.4,29.88,SW,225,0.0,3.0,39,0.00,,,0.00,NetBSD+Arduino,2013-08-22 18:55:00,
2013-08-22 12:00:00,78.9,52.4,29.87,West,270,1.5,4.5,39,0.00,,,0.00,NetBSD+Arduino,2013-08-22 19:00:00,
2013-08-22 12:05:00,78.9,52.4,29.87,SW,225,0.0,1.5,39,0.00,,,0.00,NetBSD+Arduino,2013-08-22 19:05:00,
2013-08-22 12:10:00,78.9,52.4,29.87,NW,315,0.3,3.0,39,0.00,,,0.00,NetBSD+Arduino,2013-08-22 19:10:00,
2013-08-22 12:15:00,78.9,52.4,29.87,NW,315,0.0,3.0,39,0.00,,,0.00,NetBSD+Arduino,2013-08-22 19:15:00,
2013-08-22 12:20:00,78.9,52.4,29.87,NW,315,0.6,3.0,39,0.00,,,0.00,NetBSD+Arduino,2013-08-22 19:20:00,
2013-08-22 12:25:00,78.9,52.4,29.86,West,270,0.0,4.5,39,0.00,,,0.00,NetBSD+Arduino,2013-08-22 19:25:00,
2013-08-22 12:30:00,78.9,52.4,29.86,NW,315,1.2,3.0,39,0.00,,,0.00,NetBSD+Arduino,2013-08-22 19:30:00,
2013-08-22 12:35:00,78.9,52.4,29.85,South,180,0.7,3.0,39,0.00,,,0.00,NetBSD+Arduino,2013-08-22 19:35:00,
2013-08-22 12:40:00,78.9,52.4,29.85,West,270,1.7,3.0,39,0.00,,,0.00,NetBSD+Arduino,2013-08-22 19:40:00,
2013-08-22 12:45:00,78.9,52.4,29.85,West,270,0.5,4.5,39,0.00,,,0.00,NetBSD+Arduino,2013-08-22 19:45:00,
2013-08-22 12:50:00,78.9,52.4,29.85,North,0,0.7,6.0,39,0.00,,,0.00,NetBSD+Arduino,2013-08-22 19:50:00,
2013-08-22 12:55:00,78.9,52.4,29.86,West,270,2.7,6.0,39,0.00,,,0.00,NetBSD+Arduino,2013-08-22 19:55:00,
2013-08-22 13:00:00,78.9,52.4,29.86,NW,315,2.7,6.0,39,0.00,,,0.00,NetBSD+Arduino,2013-08-22 20:00:00,
2013-08-22 13:05:00,78.9,52.4,29.85,NW,315,2.7,6.0,39,0.00,,,0.00,NetBSD+Arduino,2013-08-22 20:05:00,
2013-08-22 13:10:00,78.9,52.4,29.86,SW,225,1.2,4.5,39,0.00,,,0.00,NetBSD+Arduino,2013-08-22 20:10:00,
2013-08-22 13:15:00,78.9,52.4,29.85,West,270,2.1,4.5,39,0.00,,,0.00,NetBSD+Arduino,2013-08-22 20:15:00,
2013-08-22 13:20:00,78.9,52.4,29.84,NW,315,1.0,4.5,39,0.00,,,0.00,NetBSD+Arduino,2013-08-22 20:20:00,
2013-08-22 13:25:00,78.9,52.4,29.84,SW,225,1.7,4.5,39,0.00,,,0.00,NetBSD+Arduino,2013-08-22 20:25:00,
2013-08-22 13:30:00,85.0,55.4,29.84,NW,315,3.0,4.5,36,0.00,,,0.00,NetBSD+Arduino,2013-08-22 20:30:00,
2013-08-22 13:35:00,85.0,55.4,29.84,West,270,3.9,6.0,36,0.00,,,0.00,NetBSD+Arduino,2013-08-22 20:35:00,
2013-08-22 13:40:00,85.0,55.4,29.84,West,270,2.0,6.0,36,0.00,,,0.00,NetBSD+Arduino,2013-08-22 20:40:00,
2013-08-22 13:45:00,85.0,55.4,29.84,NW,315,2.7,4.5,36,0.00,,,0.00,NetBSD+Arduino,2013-08-22 20:45:00,
2013-08-22 13:50:00,85.0,55.4,29.84,NW,315,1.7,4.5,36,0.00,,,0.00,NetBSD+Arduino,2013-08-22 20:50:00,
2013-08-22 13:55:00,85.0,55.4,29.84,West,270,0.9,6.0,36,0.00,,,0.00,NetBSD+Arduino,2013-08-22 20:55:00,
2013-08-22 14:00:00,85.0,55.4,29.84,West,270,1.5,4.5,36,0.00,,,0.00,NetBSD+Arduino,2013-08-22 21:00:00,
2013-08-22 14:05:00,85.0,55.4,29.84,West,270,1.7,4.5,36,0.00,,,0.00,NetBSD+Arduino,2013-08-22 21:05:00,
2013-08-22 14:10:00,85.0,55.4,29.83,West,270,2.2,6.0,36,0.00,,,0.00,NetBSD+Arduino,2013-08-22 21:10:00,
2013-08-22 14:15:00,85.0,55.4,29.84,West,270,1.2,6.0,36,0.00,,,0.00,NetBSD+Arduino,2013-08-22 21:15:00,
2013-08-22 14:20:00,85.0,55.4,29.84,SW,225,2.5,6.0,36,0.00,,,0.00,NetBSD+Arduino,2013-08-22 21:20:00,
2013-08-22 14:25:00,85.0,55.4,29.84,West,270,1.5,4.5,36,0.00,,,0.00,NetBSD+Arduino,2013-08-22 21:25:00,
2013-08-22 14:30:00,85.0,55.4,29.83,NW,315,1.5,6.0,36,0.00,,,0.00,NetBSD+Arduino,2013-08-22 21:30:00,
2013-08-22 14:35:00,85.0,55.4,29.83,SW,225,2.6,6.0,36,0.00,,,0.00,NetBSD+Arduino,2013-08-22 21:35:00,
2013-08-22 14:40:00,85.0,55.4,29.83,SW,225,1.2,6.0,36,0.00,,,0.00,NetBSD+Arduino,2013-08-22 21:40:00,
2013-08-22 14:45:00,85.0,55.4,29.83,West,270,2.7,6.0,36,0.00,,,0.00,NetBSD+Arduino,2013-08-22 21:45:00,
2013-08-22 14:50:00,85.0,55.4,29.83,West,270,2.7,6.0,36,0.00,,,0.00,NetBSD+Arduino,2013-08-22 21:50:00,
2013-08-22 14:55:00,85.0,55.4,29.83,SW,225,1.5,6.0,36,0.00,,,0.00,NetBSD+Arduino,2013-08-22 21:55:00,
2013-08-22 15:00:00,85.0,55.4,29.83,NW,315,3.3,4.5,36,0.00,,,0.00,NetBSD+Arduino,2013-08-22 22:00:00,
2013-08-22 15:05:00,85.0,55.4,29.83,West,270,2.7,4.5,36,0.00,,,0.00,NetBSD+Arduino,2013-08-22 22:05:00,
2013-08-22 15:10:00,85.0,55.4,29.82,NW,315,2.7,6.0,36,0.00,,,0.00,NetBSD+Arduino,2013-08-22 22:10:00,
2013-08-22 15:15:00,85.0,55.4,29.82,NW,315,1.2,4.5,36,0.00,,,0.00,NetBSD+Arduino,2013-08-22 22:15:00,
2013-08-22 15:20:00,85.0,55.4,29.82,NW,315,0.6,4.5,36,0.00,,,0.00,NetBSD+Arduino,2013-08-22 22:20:00,
2013-08-22 15:25:00,85.0,55.4,29.82,NW,315,3.3,4.5,36,0.00,,,0.00,NetBSD+Arduino,2013-08-22 22:25:00,
2013-08-22 15:30:00,85.0,55.4,29.82,East,101,0.0,6.0,36,0.00,,,0.00,NetBSD+Arduino,2013-08-22 22:30:00,
2013-08-22 15:35:00,85.0,55.4,29.82,SW,225,3.3,6.0,36,0.00,,,0.00,NetBSD+Arduino,2013-08-22 22:35:00,
2013-08-22 15:40:00,85.0,55.4,29.82,West,270,1.5,6.0,36,0.00,,,0.00,NetBSD+Arduino,2013-08-22 22:40:00,
2013-08-22 15:45:00,85.0,55.4,29.82,West,270,2.4,4.5,36,0.00,,,0.00,NetBSD+Arduino,2013-08-22 22:45:00,
2013-08-22 15:50:00,85.0,55.4,29.81,West,270,0.0,6.0,36,0.00,,,0.00,NetBSD+Arduino,2013-08-22 22:50:00,
2013-08-22 15:55:00,85.0,55.4,29.81,NW,315,1.2,6.0,36,0.00,,,0.00,NetBSD+Arduino,2013-08-22 22:55:00,
2013-08-22 16:00:00,85.0,55.4,29.80,NW,315,1.5,4.5,36,0.00,,,0.00,NetBSD+Arduino,2013-08-22 23:00:00,
2013-08-22 16:05:00,85.0,55.4,29.80,West,270,1.5,4.5,36,0.00,,,0.00,NetBSD+Arduino,2013-08-22 23:05:00,
2013-08-22 16:10:00,85.0,55.4,29.80,NW,315,1.2,4.5,36,0.00,,,0.00,NetBSD+Arduino,2013-08-22 23:10:00,
2013-08-22 16:15:00,85.0,55.4,29.80,West,270,3.0,3.0,36,0.00,,,0.00,NetBSD+Arduino,2013-08-22 23:15:00,
2013-08-22 16:20:00,85.0,55.4,29.79,West,270,0.3,3.0,36,0.00,,,0.00,NetBSD+Arduino,2013-08-22 23:20:00,
2013-08-22 16:25:00,85.0,55.4,29.80,West,270,1.2,3.0,36,0.00,,,0.00,NetBSD+Arduino,2013-08-22 23:25:00,
2013-08-22 16:30:00,85.0,55.4,29.79,NW,315,0.0,3.0,36,0.00,,,0.00,NetBSD+Arduino,2013-08-22 23:30:00,
2013-08-22 16:35:00,85.0,55.4,29.79,NW,315,1.2,3.0,36,0.00,,,0.00,NetBSD+Arduino,2013-08-22 23:35:00,
2013-08-22 16:40:00,85.0,55.4,29.79,West,270,0.0,3.0,36,0.00,,,0.00,NetBSD+Arduino,2013-08-22 23:40:00,
2013-08-22 16:45:00,85.0,55.4,29.79,NW,315,0.9,3.0,36,0.00,,,0.00,NetBSD+Arduino,2013-08-22 23:45:00,
2013-08-22 16:50:00,85.0,55.4,29.79,West,270,0.0,3.0,36,0.00,,,0.00,NetBSD+Arduino,2013-08-22 23:50:00,
2013-08-22 16:55:00,85.0,55.4,29.79,NW,315,0.0,3.0,36,0.00,,,0.00,NetBSD+Arduino,2013-08-22 23:55:00,
2013-08-22 17:00:00,85.0,55.4,29.79,NW,315,0.6,3.0,36,0.00,,,0.00,NetBSD+Arduino,2013-08-23 00:00:00,
2013-08-22 17:05:00,85.0,55.4,29.79,NW,315,0.3,3.0,36,0.00,,,0.00,NetBSD+Arduino,2013-08-23 00:05:00,
2013-08-22 17:10:00,85.0,55.4,29.79,NW,315,0.0,3.0,36,0.00,,,0.00,NetBSD+Arduino,2013-08-23 00:10:00,
2013-08-22 17:15:00,85.0,55.4,29.79,NW,315,0.9,3.0,43,0.00,,,0.00,NetBSD+Arduino,2013-08-23 00:15:00,
2013-08-22 17:20:00,78.6,55.2,29.79,West,270,1.2,1.5,44,0.00,,,0.00,NetBSD+Arduino,2013-08-23 00:20:00,
2013-08-22 17:25:00,78.8,55.7,29.79,NW,315,0.0,3.0,45,0.00,,,0.00,NetBSD+Arduino,2013-08-23 00:25:00,
2013-08-22 17:30:00,78.6,56.1,29.79,West,270,0.9,3.0,46,0.00,,,0.00,NetBSD+Arduino,2013-08-23 00:30:00,
2013-08-22 17:35:00,78.7,55.9,29.79,West,270,1.2,3.0,45,0.00,,,0.00,NetBSD+Arduino,2013-08-23 00:35:00,
2013-08-22 17:40:00,78.8,56.5,29.79,West,270,0.2,3.0,46,0.00,,,0.00,NetBSD+Arduino,2013-08-23 00:40:00,
2013-08-22 17:45:00,78.8,56.5,29.79,NW,315,1.0,3.0,46,0.00,,,0.00,NetBSD+Arduino,2013-08-23 00:45:00,
2013-08-22 17:50:00,78.8,56.5,29.78,West,270,0.6,3.0,46,0.00,,,0.00,NetBSD+Arduino,2013-08-23 00:50:00,
2013-08-22 17:56:00,78.8,56.5,29.78,NW,315,0.0,3.0,46,0.00,,,0.00,NetBSD+Arduino,2013-08-23 00:56:00,
2013-08-22 18:01:00,78.8,56.5,29.78,West,270,1.5,3.0,46,0.00,,,0.00,NetBSD+Arduino,2013-08-23 01:01:00,
2013-08-22 18:07:00,78.8,56.5,29.78,West,270,0.0,3.0,46,0.00,,,0.00,NetBSD+Arduino,2013-08-23 01:07:00,
2013-08-22 18:12:00,78.8,56.5,29.78,West,270,0.0,1.5,46,0.00,,,0.00,NetBSD+Arduino,2013-08-23 01:12:00,
2013-08-22 18:17:00,78.8,56.5,29.78,West,270,0.0,3.0,46,0.00,,,0.00,NetBSD+Arduino,2013-08-23 01:17:00,
2013-08-22 18:22:00,78.8,56.5,29.78,NW,315,0.0,1.5,46,0.00,,,0.00,NetBSD+Arduino,2013-08-23 01:22:00,
2013-08-22 18:27:00,78.8,56.5,29.78,West,270,1.5,3.0,46,0.00,,,0.00,NetBSD+Arduino,2013-08-23 01:27:00,
2013-08-22 18:32:00,78.8,56.5,29.78,NW,315,0.0,3.0,46,0.00,,,0.00,NetBSD+Arduino,2013-08-23 01:32:00,
2013-08-22 18:37:00,78.8,56.5,29.77,West,270,0.0,3.0,46,0.00,,,0.00,NetBSD+Arduino,2013-08-23 01:37:00,
2013-08-22 18:42:00,78.8,56.5,29.77,West,270,0.3,1.5,46,0.00,,,0.00,NetBSD+Arduino,2013-08-23 01:42:00,
2013-08-22 18:47:00,76.1,55.5,29.77,SW,225,1.2,1.5,48,0.00,,,0.00,NetBSD+Arduino,2013-08-23 01:47:00,
2013-08-22 18:52:00,76.0,56.0,29.78,West,270,0.0,1.5,49,0.00,,,0.00,NetBSD+Arduino,2013-08-23 01:52:00,
2013-08-22 18:57:00,75.7,56.0,29.79,West,270,0.0,0.0,50,0.00,,,0.00,NetBSD+Arduino,2013-08-23 01:57:00,
2013-08-22 19:02:00,75.3,55.9,29.79,West,270,0.0,0.0,50,0.00,,,0.00,NetBSD+Arduino,2013-08-23 02:02:00,
2013-08-22 19:07:00,75.3,55.9,29.79,SW,225,0.0,0.0,50,0.00,,,0.00,NetBSD+Arduino,2013-08-23 02:07:00,
2013-08-22 19:12:00,75.3,55.9,29.79,NW,315,0.0,0.0,50,0.00,,,0.00,NetBSD+Arduino,2013-08-23 02:12:00,
2013-08-22 19:17:00,75.3,55.9,29.79,West,270,1.5,1.5,50,0.00,,,0.00,NetBSD+Arduino,2013-08-23 02:17:00,
2013-08-22 19:22:00,75.3,55.9,29.79,West,270,0.7,1.5,50,0.00,,,0.00,NetBSD+Arduino,2013-08-23 02:22:00,
2013-08-22 19:27:00,75.3,55.9,29.79,SW,225,0.0,1.5,50,0.00,,,0.00,NetBSD+Arduino,2013-08-23 02:27:00,
2013-08-22 19:32:00,75.3,55.9,29.79,West,270,1.5,3.0,50,0.00,,,0.00,NetBSD+Arduino,2013-08-23 02:32:00,
2013-08-22 19:37:00,75.3,55.9,29.79,West,270,1.5,3.0,50,0.00,,,0.00,NetBSD+Arduino,2013-08-23 02:37:00,
2013-08-22 19:42:00,75.3,55.9,29.79,SW,225,1.0,3.0,50,0.00,,,0.00,NetBSD+Arduino,2013-08-23 02:42:00,
2013-08-22 19:47:00,75.3,55.9,29.79,West,270,1.0,3.0,50,0.00,,,0.00,NetBSD+Arduino,2013-08-23 02:47:00,
2013-08-22 19:52:00,75.3,55.9,29.79,SW,225,0.0,3.0,50,0.00,,,0.00,NetBSD+Arduino,2013-08-23 02:52:00,
2013-08-22 19:58:00,75.3,55.9,29.79,West,270,0.5,1.5,50,0.00,,,0.00,NetBSD+Arduino,2013-08-23 02:58:00,
2013-08-22 20:04:00,75.3,55.9,29.79,West,270,1.2,3.0,50,0.00,,,0.00,NetBSD+Arduino,2013-08-23 03:04:00,
2013-08-22 20:09:00,75.3,55.9,29.79,West,270,0.3,1.5,50,0.00,,,0.00,NetBSD+Arduino,2013-08-23 03:09:00,
2013-08-22 20:14:00,75.3,55.9,29.79,West,270,0.0,1.5,50,0.00,,,0.00,NetBSD+Arduino,2013-08-23 03:14:00,
2013-08-22 20:19:00,75.3,55.9,29.79,West,270,0.0,0.0,50,0.00,,,0.00,NetBSD+Arduino,2013-08-23 03:19:00,
2013-08-22 20:24:00,72.6,54.1,29.79,West,270,0.0,0.0,52,0.00,,,0.00,NetBSD+Arduino,2013-08-23 03:24:00,
2013-08-22 20:29:00,72.4,54.2,29.80,West,270,0.0,0.0,52,0.00,,,0.00,NetBSD+Arduino,2013-08-23 03:29:00,
2013-08-22 20:34:00,72.4,54.2,29.80,West,270,0.0,0.0,52,0.00,,,0.00,NetBSD+Arduino,2013-08-23 03:34:00,
2013-08-22 20:39:00,71.8,54.4,29.80,West,270,0.0,0.0,54,0.00,,,0.00,NetBSD+Arduino,2013-08-23 03:39:00,
2013-08-22 20:44:00,71.6,54.6,29.80,West,270,0.0,0.0,55,0.00,,,0.00,NetBSD+Arduino,2013-08-23 03:44:00,
2013-08-22 20:49:00,71.4,54.5,29.80,West,270,0.0,0.0,55,0.00,,,0.00,NetBSD+Arduino,2013-08-23 03:49:00,
2013-08-22 20:54:00,71.1,54.7,29.80,West,270,0.0,0.0,56,0.00,,,0.00,NetBSD+Arduino,2013-08-23 03:54:00,
2013-08-22 20:59:00,71.0,54.5,29.81,West,270,0.0,0.0,56,0.00,,,0.00,NetBSD+Arduino,2013-08-23 03:59:00,
2013-08-22 21:01:00,70.9,54.5,29.80,West,270,0.0,0.0,56,0.00,,,0.00,NetBSD+Arduino,2013-08-23 04:01:00,
2013-08-22 21:02:00,70.9,54.5,29.80,West,270,0.0,0.0,56,0.00,,,0.00,NetBSD+Arduino,2013-08-23 04:02:00,
2013-08-22 21:03:00,71.0,54.5,29.80,West,270,0.0,0.0,56,0.00,,,0.00,NetBSD+Arduino,2013-08-23 04:03:00,
2013-08-22 21:08:00,71.0,54.5,29.81,West,270,0.0,0.0,56,0.00,,,0.00,NetBSD+Arduino,2013-08-23 04:08:00,
2013-08-22 21:10:00,70.9,54.7,29.81,West,270,0.0,0.0,56,0.00,,,0.00,NetBSD+Arduino,2013-08-23 04:10:00,
2013-08-22 21:12:00,70.9,54.7,29.81,West,270,0.0,0.0,56,0.00,,,0.00,NetBSD+Arduino,2013-08-23 04:12:00,
2013-08-22 21:17:00,71.0,54.5,29.82,NW,315,0.0,0.0,56,0.00,,,0.00,NetBSD+Arduino,2013-08-23 04:17:00,
2013-08-22 21:22:00,71.0,54.5,29.82,NW,315,0.0,0.0,56,0.00,,,0.00,NetBSD+Arduino,2013-08-23 04:22:00,
2013-08-22 21:27:00,70.8,54.7,29.82,NW,315,0.0,0.0,56,0.00,,,0.00,NetBSD+Arduino,2013-08-23 04:27:00,
2013-08-22 21:32:00,70.8,54.7,29.82,NW,315,0.0,0.0,56,0.00,,,0.00,NetBSD+Arduino,2013-08-23 04:32:00,
2013-08-22 21:37:00,70.9,54.5,29.82,NW,315,0.0,0.0,56,0.00,,,0.00,NetBSD+Arduino,2013-08-23 04:37:00,
2013-08-22 21:43:00,70.9,54.5,29.82,North,0,0.0,0.0,56,0.00,,,0.00,NetBSD+Arduino,2013-08-23 04:43:00,
2013-08-22 21:48:00,70.9,54.5,29.81,SW,225,0.0,0.0,56,0.00,,,0.00,NetBSD+Arduino,2013-08-23 04:48:00,
2013-08-22 21:53:00,70.7,54.8,29.81,NE,45,0.0,0.0,57,0.00,,,0.00,NetBSD+Arduino,2013-08-23 04:53:00,
2013-08-22 21:58:00,70.8,54.4,29.81,NW,315,0.0,0.0,56,0.00,,,0.00,NetBSD+Arduino,2013-08-23 04:58:00,
2013-08-22 22:03:00,70.8,54.7,29.81,North,0,1.2,3.0,56,0.00,,,0.00,NetBSD+Arduino,2013-08-23 05:03:00,
2013-08-22 22:08:00,70.8,54.2,29.81,NW,315,0.0,3.0,55,0.00,,,0.00,NetBSD+Arduino,2013-08-23 05:08:00,
2013-08-22 22:13:00,70.7,54.3,29.81,West,270,0.0,0.0,56,0.00,,,0.00,NetBSD+Arduino,2013-08-23 05:13:00,
2013-08-22 22:18:00,70.6,54.2,29.80,SW,225,0.0,0.0,56,0.00,,,0.00,NetBSD+Arduino,2013-08-23 05:18:00,
2013-08-22 22:23:00,70.6,54.2,29.80,NW,315,0.0,1.5,56,0.00,,,0.00,NetBSD+Arduino,2013-08-23 05:23:00,
2013-08-22 22:28:00,70.2,53.8,29.80,West,270,0.0,0.0,56,0.00,,,0.00,NetBSD+Arduino,2013-08-23 05:28:00,
2013-08-22 22:33:00,70.2,53.8,29.80,West,270,0.0,0.0,56,0.00,,,0.00,NetBSD+Arduino,2013-08-23 05:33:00,
2013-08-22 22:39:00,70.2,53.8,29.80,West,270,0.0,0.0,56,0.00,,,0.00,NetBSD+Arduino,2013-08-23 05:39:00,
2013-08-22 22:44:00,70.2,53.8,29.80,West,270,0.0,0.0,56,0.00,,,0.00,NetBSD+Arduino,2013-08-23 05:44:00,
2013-08-22 22:49:00,70.2,53.8,29.80,South,180,1.5,1.5,56,0.00,,,0.00,NetBSD+Arduino,2013-08-23 05:49:00,
2013-08-22 22:54:00,70.2,53.8,29.80,South,180,0.0,1.5,56,0.00,,,0.00,NetBSD+Arduino,2013-08-23 05:54:00,
2013-08-22 22:59:00,70.2,53.8,29.81,South,180,0.0,0.0,56,0.00,,,0.00,NetBSD+Arduino,2013-08-23 05:59:00,
2013-08-22 23:04:00,70.2,53.8,29.80,South,180,0.0,0.0,56,0.00,,,0.00,NetBSD+Arduino,2013-08-23 06:04:00,
2013-08-22 23:09:00,70.2,53.8,29.81,SE,135,0.0,0.0,56,0.00,,,0.00,NetBSD+Arduino,2013-08-23 06:09:00,
2013-08-22 23:14:00,70.2,53.8,29.81,East,90,0.0,0.0,56,0.00,,,0.00,NetBSD+Arduino,2013-08-23 06:14:00,
2013-08-22 23:19:00,70.2,53.8,29.80,East,90,0.0,0.0,56,0.00,,,0.00,NetBSD+Arduino,2013-08-23 06:19:00,
2013-08-22 23:24:00,70.2,53.8,29.80,East,90,0.0,0.0,56,0.00,,,0.00,NetBSD+Arduino,2013-08-23 06:24:00,
2013-08-22 23:29:00,70.2,53.8,29.80,SW,225,0.0,0.0,56,0.00,,,0.00,NetBSD+Arduino,2013-08-23 06:29:00,
2013-08-22 23:34:00,70.2,53.8,29.80,South,180,0.0,0.0,56,0.00,,,0.00,NetBSD+Arduino,2013-08-23 06:34:00,
2013-08-22 23:39:00,70.2,53.8,29.80,SW,225,2.1,3.0,56,0.00,,,0.00,NetBSD+Arduino,2013-08-23 06:39:00,
2013-08-22 23:44:00,70.2,53.8,29.81,SW,225,0.9,3.0,56,0.00,,,0.00,NetBSD+Arduino,2013-08-23 06:44:00,
2013-08-22 23:49:00,70.2,53.8,29.80,SW,225,0.0,1.5,56,0.00,,,0.00,NetBSD+Arduino,2013-08-23 06:49:00,
2013-08-22 23:54:00,70.2,53.8,29.80,SW,225,0.0,1.5,56,0.00,,,0.00,NetBSD+Arduino,2013-08-23 06:54:00,
2013-08-22 23:59:00,70.2,53.8,29.80,SW,225,0.0,1.5,56,0.00,,,0.00,NetBSD+Arduino,2013-08-23 06:59:00,